Bar Harbor, ME

8:30 AM EST on December 08, 2019 (GMT -0500)
Hancock County-Bar Harbor

Weather History for KBHB - October, 2019

Change the Weather History Date:

Thursday, October 31, 2019

  Actual Average Record
Temperature  
Mean Temperature 58 °F -  
Max Temperature 62 °F 50 °F 71 °F (1956)
Min Temperature 53 °F 33 °F 21 °F (1966)
Degree Days  
Heating Degree Days 8    
Growing Degree Days 8 (Base 50)    
Moisture  
Dew Point 57 °F    
Average Humidity 98    
Maximum Humidity 100    
Minimum Humidity 93    
Precipitation  
Precipitation 0.66 in - - ()
Sea Level Pressure  
Sea Level Pressure 29.96 in    
Wind  
Wind Speed 12 mph (South)    
Max Wind Speed 29 mph    
Max Gust Speed 40 mph    
Visibility 3 miles    
Events Rain    
Averages and records for this station are not official NWS values.
T = Trace of Precipitation, MM = Missing Value Source: NWS Daily Summary

Daily Weather History Graph

Daily Weather History Graph

Search for Another Location

Airport or City:

Astronomy

Oct. 31, 2019 Rise Set
Actual Time 7:09 AM EDT 5:24 PM EDT
Civil Twilight 6:38 AM EDT 5:54 PM EDT
Nautical Twilight 6:04 AM EDT 6:28 PM EDT
Astronomical Twilight 5:30 AM EDT 7:02 PM EDT
Moon 11:00 AM EDT (10/31) 8:10 PM EDT (10/31)
Length of Visible Light 11h 15m
Length of Day
10h 15m
Waxing Crescent, 15% of the Moon is Illuminated
Oct 31
Waxing Crescent
Nov 4
First Quarter
Nov 12
Full
Nov 19
Last Quarter
Nov 26
New

Hourly Weather History & Observations

Time (EDT) Temp. Dew Point Humidity Pressure Visibility Wind Dir Wind Speed Gust Speed Precip Events Conditions
12:24 AM 53.6 °F 53.6 °F 100% 30.21 in 5.0 mi SE 3.5 mph - 0.00 in Rain Light Rain
12:56 AM 54.0 °F 54.0 °F 100% 30.20 in 6.0 mi SE 3.5 mph - 0.00 in   Overcast
1:19 AM 53.6 °F 53.6 °F 100% 30.18 in 2.0 mi SE 4.6 mph - 0.00 in Rain Light Rain
1:43 AM 53.6 °F 53.6 °F 100% 30.17 in 3.0 mi SSE 5.8 mph - 0.01 in Rain Light Rain
1:56 AM 54.0 °F 54.0 °F 100% 30.18 in 2.5 mi SE 3.5 mph - 0.02 in Rain Light Rain
2:48 AM 53.6 °F 53.6 °F 100% 30.14 in 3.0 mi East 4.6 mph - 0.06 in Rain Rain
2:56 AM 54.0 °F 54.0 °F 100% 30.14 in 4.0 mi East 3.5 mph - 0.08 in Rain Rain
3:16 AM 53.6 °F 53.6 °F 100% 30.11 in 2.5 mi ESE 5.8 mph - 0.03 in Rain Light Rain
3:28 AM 53.6 °F 53.6 °F 100% 30.11 in 2.5 mi East 5.8 mph - 0.08 in Rain Heavy Rain
3:41 AM 53.6 °F 53.6 °F 100% 30.10 in 4.0 mi ESE 5.8 mph - 0.10 in Rain Light Rain
3:56 AM 54.0 °F 54.0 °F 100% 30.09 in 2.5 mi East 6.9 mph - 0.14 in Rain Rain
4:15 AM 55.4 °F 55.4 °F 100% 30.07 in 2.5 mi Variable 3.5 mph - 0.02 in Rain Light Rain
4:30 AM 55.4 °F 55.4 °F 100% 30.07 in 4.0 mi Variable 5.8 mph - 0.03 in Rain Light Rain
4:56 AM 57.0 °F 55.9 °F 96% 30.06 in 3.0 mi South 10.4 mph - 0.06 in Rain Light Rain
5:11 AM 57.2 °F 57.2 °F 100% 30.05 in 4.0 mi South 8.1 mph - 0.01 in Rain Light Rain
5:38 AM 57.2 °F 57.2 °F 100% 30.05 in 2.5 mi South 11.5 mph - 0.01 in   Overcast
5:56 AM 57.9 °F 57.9 °F 100% 30.05 in 1.8 mi SSW 17.3 mph - 0.01 in   Overcast
6:24 AM 57.2 °F 57.2 °F 100% 30.03 in 1.0 mi SSW 16.1 mph 23.0 mph 0.00 in Rain Light Rain
6:56 AM 57.9 °F 57.9 °F 100% 30.03 in 1.0 mi SSW 13.8 mph - 0.01 in Rain Light Rain
7:56 AM 57.9 °F 57.9 °F 100% 30.02 in 0.8 mi SSW 13.8 mph - 0.00 in   Overcast
8:30 AM 57.2 °F 57.2 °F 100% 30.02 in 1.0 mi SSW 17.3 mph 23.0 mph N/A   Overcast
8:43 AM 57.2 °F 57.2 °F 100% 30.01 in 2.0 mi South 17.3 mph - N/A   Overcast
8:56 AM 57.9 °F 57.9 °F 100% 30.02 in 2.0 mi SSW 16.1 mph - N/A   Overcast
9:10 AM 57.2 °F 57.2 °F 100% 30.01 in 8.0 mi SSW 17.3 mph 23.0 mph N/A   Overcast
9:56 AM 57.9 °F 57.0 °F 97% 30.01 in 2.5 mi SSW 16.1 mph - 0.02 in Rain Light Rain
10:08 AM 57.2 °F 57.2 °F 100% 30.00 in 7.0 mi SSW 16.1 mph - 0.00 in Rain Light Rain
10:27 AM 57.2 °F 57.2 °F 100% 29.99 in 1.8 mi SSW 13.8 mph - 0.01 in Rain Rain
10:39 AM 57.2 °F 57.2 °F 100% 29.99 in 2.0 mi SSW 10.4 mph - 0.03 in Rain Light Rain
10:56 AM 57.9 °F 57.0 °F 97% 29.98 in 2.5 mi South 13.8 mph - 0.05 in Rain Rain
11:56 AM 60.1 °F 59.0 °F 96% 29.93 in 3.0 mi SSW 16.1 mph 21.9 mph 0.02 in Rain Light Rain
12:07 PM 60.8 °F 59.0 °F 94% 29.92 in 1.8 mi SSW 17.3 mph 23.0 mph 0.01 in Rain Rain
12:29 PM 59.0 °F 57.2 °F 94% 29.90 in 3.0 mi SSW 20.7 mph 28.8 mph 0.03 in Rain Rain
12:56 PM 59.0 °F 57.9 °F 96% 29.89 in 3.0 mi SSW 23.0 mph 28.8 mph 0.07 in Rain Rain
1:54 PM 59.0 °F 59.0 °F 100% 29.85 in 1.8 mi SSW 24.2 mph 27.6 mph 0.02 in Rain Light Rain
1:56 PM 59.0 °F 59.0 °F 100% 29.86 in 1.8 mi SSW 25.3 mph 32.2 mph 0.02 in Rain Light Rain
2:30 PM 60.8 °F 59.0 °F 94% 29.83 in 3.0 mi SSW 27.6 mph 36.8 mph 0.01 in Rain Light Rain
2:42 PM 60.8 °F 59.0 °F 94% 29.83 in 2.5 mi SSW 24.2 mph 33.4 mph 0.01 in Rain Light Rain
2:56 PM 60.1 °F 60.1 °F 100% 29.83 in 2.0 mi SSW 26.5 mph 35.7 mph 0.02 in Rain Light Rain
3:56 PM 60.1 °F 60.1 °F 100% 29.82 in 1.5 mi SSW 27.6 mph 34.5 mph 0.06 in Rain Light Rain
4:56 PM 61.0 °F 60.1 °F 97% 29.81 in 1.8 mi SSW 27.6 mph 34.5 mph 0.01 in Rain Light Rain
5:05 PM 60.8 °F 60.8 °F 100% 29.80 in 3.0 mi SSW 28.8 mph 35.7 mph 0.01 in Rain Light Rain
5:56 PM 60.1 °F 59.0 °F 96% 29.80 in 5.0 mi SSW 23.0 mph 32.2 mph 0.03 in Rain Light Rain
6:31 PM 60.8 °F 60.8 °F 100% 29.77 in 4.0 mi SSW 21.9 mph 32.2 mph 0.02 in Rain Rain
6:56 PM 61.0 °F 60.1 °F 97% 29.77 in 7.0 mi SSW 24.2 mph 32.2 mph 0.02 in   Overcast
7:56 PM 61.0 °F 59.0 °F 93% 29.76 in 7.0 mi SSW 23.0 mph 38.0 mph 0.00 in Rain Light Rain
8:56 PM 61.0 °F 59.0 °F 93% 29.74 in 7.0 mi SSW 26.5 mph 33.4 mph 0.00 in Rain Light Rain
9:56 PM 62.1 °F 60.1 °F 93% 29.72 in 7.0 mi SSW 28.8 mph 35.7 mph 0.01 in Rain Light Rain
10:56 PM 62.1 °F 60.1 °F 93% 29.69 in 7.0 mi SSW 26.5 mph 40.3 mph 0.01 in Rain Light Rain
11:56 PM 61.0 °F 60.1 °F 97% 29.66 in 5.0 mi SSW 25.3 mph 36.8 mph 0.00 in Rain Light Rain